Location: Krakow
(50.0830°N, 19.9170°E)
Time: 19:01:54
(UTC+01:00)

Vanguard 1 Rocket - Pass Details

Date: 19 December 2025
Orbit: 651 x 4216 km, 34.3° (Epoch: 19 January)

Event Time Altitude Azimuth Distance (km) Brightness Sun altitude
Rises 06:18:37 0° 229° (SW) 3,065 9.9 -11.5°
Reaches altitude 10° 06:22:33 10° 195° (SSW) 2,044 9.3 -10.9°
Maximum altitude 06:24:05 12° 174° (S) 1,953 9.5 -10.7°
Drops below altitude 10° 06:25:38 10° 153° (SSE) 2,101 10.1 -10.5°
Sets 06:29:52 0° 120° (ESE) 3,291 12.6 -9.9°
